TimeEDT,TemperatureF,Dew PointF,Humidity,Sea Level PressureIn,VisibilityMPH,Wind Direction,Wind SpeedMPH,Gust SpeedMPH,PrecipitationIn,Events,Conditions,WindDirDegrees,DateUTC
12:54 AM,64.9,64.0,97,29.83,-9999.0,North,-9999.0,-,N/A,,Unknown,0,2013-08-23 04:54:00
1:54 AM,64.0,62.1,93,29.83,-9999.0,North,-9999.0,-,N/A,,Unknown,0,2013-08-23 05:54:00
2:54 AM,62.1,61.0,96,29.85,-9999.0,North,-9999.0,-,N/A,,Unknown,0,2013-08-23 06:54:00
3:54 AM,61.0,60.1,97,29.86,-9999.0,North,-9999.0,-,N/A,,Unknown,0,2013-08-23 07:54:00
4:54 AM,60.1,59.0,96,29.88,-9999.0,North,-9999.0,-,N/A,,Unknown,0,2013-08-23 08:54:00
5:54 AM,59.0,57.9,96,29.91,-9999.0,North,-9999.0,-,N/A,,Unknown,0,2013-08-23 09:54:00
6:54 AM,57.9,57.9,100,29.93,-9999.0,North,-9999.0,-,N/A,,Unknown,0,2013-08-23 10:54:00
7:54 AM,59.0,59.0,100,29.95,-9999.0,North,-9999.0,-,N/A,,Unknown,0,2013-08-23 11:54:00
8:54 AM,64.9,57.9,78,29.96,-9999.0,North,-9999.0,-,N/A,,Unknown,0,2013-08-23 12:54:00
9:54 AM,66.0,53.1,63,29.98,-9999.0,North,-9999.0,-,N/A,,Unknown,0,2013-08-23 13:54:00
10:54 AM,68.0,50.0,52,29.99,-9999.0,North,-9999.0,-,N/A,,Unknown,0,2013-08-23 14:54:00
11:54 AM,69.1,50.0,51,30.00,-9999.0,North,-9999.0,-,N/A,,Unknown,0,2013-08-23 15:54:00
12:54 PM,70.0,48.9,47,29.99,-9999.0,North,-9999.0,-,N/A,,Unknown,0,2013-08-23 16:54:00
1:54 PM,70.0,45.0,41,30.00,-9999.0,North,-9999.0,-,N/A,,Unknown,0,2013-08-23 17:54:00
2:54 PM,72.0,48.0,43,30.01,-9999.0,North,-9999.0,-,N/A,,Unknown,0,2013-08-23 18:54:00
3:54 PM,71.1,46.9,42,30.02,-9999.0,North,-9999.0,-,N/A,,Unknown,0,2013-08-23 19:54:00
4:54 PM,70.0,45.0,41,30.04,-9999.0,North,-9999.0,-,N/A,,Unknown,0,2013-08-23 20:54:00
5:54 PM,68.0,46.9,47,30.06,-9999.0,North,-9999.0,-,N/A,,Unknown,0,2013-08-23 21:54:00
6:54 PM,66.0,46.0,48,30.08,-9999.0,North,-9999.0,-,N/A,,Unknown,0,2013-08-23 22:54:00
7:54 PM,63.0,46.0,54,30.10,-9999.0,North,-9999.0,-,N/A,,Unknown,0,2013-08-23 23:54:00
8:54 PM,57.9,50.0,75,30.13,-9999.0,North,-9999.0,-,N/A,,Unknown,0,2013-08-24 00:54:00
9:54 PM,55.0,50.0,83,30.15,-9999.0,North,-9999.0,-,N/A,,Unknown,0,2013-08-24 01:54:00
10:54 PM,52.0,50.0,93,30.17,-9999.0,North,-9999.0,-,N/A,,Unknown,0,2013-08-24 02:54:00
11:54 PM,51.1,48.9,92,30.19,-9999.0,North,-9999.0,-,N/A,,Unknown,0,2013-08-24 03:54:00